CPA330 VHHH-ZGHA

Flight info

Callsign CPA330
Flight time 1h 3m
Altitude 24600
Route BEKOL A461 YIN/K0854S1070 A461 MEXON W616 UKLUK
Aircraft A21N/M-SADE3GHIJ3J7M3P2RWYZ/LB1LB2D1

Departure

Time 2026-04-21 03:13
Airport Hong Kong International Airport (VHHH)

Arrival

Time 2026-04-21 04:17
Airport Changsha Huanghua International Airport (ZGHA)
Time Latitude Longitude Altitude Speed Heading
2026-04-21 02:40 22.31785 113.93068 37 ft 0 kts 261°
2026-04-21 03:01 22.31787 113.93084 37 ft 4 kts 261°
2026-04-21 03:01 22.31791 113.93113 37 ft 3 kts 261°
2026-04-21 03:01 22.31797 113.93136 37 ft 4 kts 220°
2026-04-21 03:02 22.31812 113.93140 37 ft 4 kts 159°
2026-04-21 03:02 22.31836 113.93130 37 ft 2 kts 160°
2026-04-21 03:02 22.31837 113.93129 37 ft 0 kts 161°
2026-04-21 03:04 22.31792 113.93146 36 ft 14 kts 161°
2026-04-21 03:04 22.31701 113.93181 37 ft 13 kts 161°
2026-04-21 03:04 22.31619 113.93164 37 ft 12 kts 221°
2026-04-21 03:05 22.31596 113.93112 37 ft 11 kts 255°
2026-04-21 03:05 22.31570 113.93033 35 ft 11 kts 249°
2026-04-21 03:05 22.31545 113.92961 37 ft 11 kts 250°
2026-04-21 03:05 22.31516 113.92870 37 ft 15 kts 251°
2026-04-21 03:06 22.31498 113.92757 37 ft 15 kts 286°
2026-04-21 03:06 22.31540 113.92657 37 ft 15 kts 295°
2026-04-21 03:06 22.31584 113.92559 37 ft 14 kts 295°
2026-04-21 03:06 22.31626 113.92464 37 ft 14 kts 296°
2026-04-21 03:07 22.31647 113.92373 37 ft 13 kts 255°
2026-04-21 03:07 22.31620 113.92285 37 ft 12 kts 251°
2026-04-21 03:07 22.31590 113.92193 37 ft 16 kts 251°
2026-04-21 03:07 22.31552 113.92085 35 ft 14 kts 234°
2026-04-21 03:08 22.31467 113.92077 37 ft 13 kts 159°
2026-04-21 03:08 22.31385 113.92109 37 ft 12 kts 160°
2026-04-21 03:08 22.31273 113.92151 36 ft 21 kts 161°
2026-04-21 03:08 22.31141 113.92200 37 ft 20 kts 161°
2026-04-21 03:09 22.31011 113.92247 37 ft 20 kts 161°
2026-04-21 03:09 22.30885 113.92297 37 ft 19 kts 160°
2026-04-21 03:09 22.30763 113.92345 37 ft 14 kts 148°
2026-04-21 03:09 22.30754 113.92440 37 ft 13 kts 70°
2026-04-21 03:10 22.30782 113.92527 35 ft 12 kts 71°
2026-04-21 03:10 22.30808 113.92607 36 ft 11 kts 71°
2026-04-21 03:10 22.30833 113.92685 37 ft 13 kts 71°
2026-04-21 03:10 22.30873 113.92813 35 ft 22 kts 72°
2026-04-21 03:11 22.30919 113.92965 35 ft 21 kts 71°
2026-04-21 03:11 22.30952 113.93101 37 ft 20 kts 98°
2026-04-21 03:11 22.30885 113.93215 36 ft 18 kts 147°
2026-04-21 03:11 22.30776 113.93251 36 ft 16 kts 175°
2026-04-21 03:12 22.30710 113.93172 35 ft 17 kts 250°
2026-04-21 03:12 22.30622 113.92902 35 ft 71 kts 250°
2026-04-21 03:12 22.30384 113.92164 39 ft 127 kts 250°
2026-04-21 03:12 22.30041 113.91101 39 ft 168 kts 251°
2026-04-21 03:13 22.29639 113.89826 305 ft 179 kts 250°
2026-04-21 03:13 22.29252 113.88597 1117 ft 167 kts 250°
2026-04-21 03:13 22.28880 113.87403 1670 ft 170 kts 249°
2026-04-21 03:13 22.28418 113.86206 1982 ft 181 kts 238°
2026-04-21 03:14 22.27651 113.85089 2150 ft 197 kts 231°
2026-04-21 03:14 22.26826 113.83842 2325 ft 213 kts 233°
2026-04-21 03:14 22.25959 113.82538 2824 ft 216 kts 224°
2026-04-21 03:14 22.24747 113.81577 3521 ft 215 kts 201°
2026-04-21 03:15 22.23232 113.81240 3872 ft 232 kts 180°
2026-04-21 03:15 22.21598 113.81199 4507 ft 239 kts 179°
2026-04-21 03:15 22.19949 113.81501 5259 ft 242 kts 158°
2026-04-21 03:15 22.18530 113.82495 5995 ft 247 kts 136°
2026-04-21 03:16 22.17374 113.83880 6732 ft 250 kts 134°
2026-04-21 03:16 22.16266 113.85345 7440 ft 256 kts 123°
2026-04-21 03:16 22.15522 113.87067 8112 ft 261 kts 114°
2026-04-21 03:16 22.14859 113.88831 8765 ft 264 kts 115°
2026-04-21 03:17 22.14269 113.90727 9398 ft 271 kts 101°
2026-04-21 03:17 22.14314 113.92789 9879 ft 286 kts 78°
2026-04-21 03:17 22.15124 113.94818 10110 ft 306 kts 62°
2026-04-21 03:17 22.16196 113.96908 10254 ft 328 kts 62°
2026-04-21 03:18 22.17325 113.99142 10384 ft 350 kts 62°
2026-04-21 03:18 22.18527 114.01501 10526 ft 369 kts 58°
2026-04-21 03:18 22.20169 114.03676 10960 ft 377 kts 43°
2026-04-21 03:18 22.22095 114.05614 11533 ft 381 kts 42°
2026-04-21 03:19 22.24050 114.07574 12146 ft 385 kts 41°
2026-04-21 03:19 22.26024 114.09549 12735 ft 389 kts 41°
2026-04-21 03:19 22.28040 114.11509 13349 ft 391 kts 37°
2026-04-21 03:19 22.30308 114.13137 13956 ft 392 kts 26°
2026-04-21 03:20 22.32753 114.14461 14542 ft 395 kts 24°
2026-04-21 03:20 22.35229 114.15790 15112 ft 398 kts 24°
2026-04-21 03:20 22.37719 114.17130 15694 ft 401 kts 25°
2026-04-21 03:20 22.40260 114.18323 16179 ft 403 kts 15°
2026-04-21 03:21 22.43006 114.18888 16664 ft 403 kts
2026-04-21 03:21 22.45782 114.18720 17163 ft 402 kts 347°
2026-04-21 03:21 22.48489 114.17824 17653 ft 401 kts 333°
2026-04-21 03:21 22.50855 114.16323 18119 ft 400 kts 320°
2026-04-21 03:22 22.53019 114.14482 18574 ft 402 kts 320°
2026-04-21 03:22 22.55305 114.12858 19006 ft 408 kts 329°
2026-04-21 03:22 22.57869 114.11520 19462 ft 411 kts 332°
2026-04-21 03:22 22.60283 114.10286 19883 ft 413 kts 332°
2026-04-21 03:23 22.62968 114.08912 20322 ft 415 kts 332°
2026-04-21 03:23 22.65588 114.07566 20745 ft 417 kts 332°
2026-04-21 03:23 22.68213 114.06214 21151 ft 420 kts 332°
2026-04-21 03:23 22.70862 114.04849 21553 ft 422 kts 332°
2026-04-21 03:24 22.73549 114.03463 21944 ft 424 kts 332°
2026-04-21 03:24 22.76217 114.02086 22327 ft 426 kts 332°
2026-04-21 03:24 22.78909 114.00697 22700 ft 428 kts 332°
2026-04-21 03:24 22.81528 113.99348 23051 ft 430 kts 332°
2026-04-21 03:25 22.84244 113.97949 23395 ft 433 kts 332°
2026-04-21 03:25 22.86080 113.97004 23621 ft 434 kts 332°
2026-04-21 03:25 22.89708 113.95135 24060 ft 437 kts 332°
2026-04-21 03:25 22.92460 113.93710 24377 ft 439 kts 332°
2026-04-21 03:26 22.94313 113.92745 24510 ft 440 kts 332°
2026-04-21 03:26 22.97076 113.91304 24550 ft 440 kts 332°
2026-04-21 03:26 22.99835 113.89863 24553 ft 440 kts 332°
2026-04-21 03:26 23.02408 113.88520 24551 ft 440 kts 332°
2026-04-21 03:27 23.05200 113.87067 24553 ft 440 kts 332°
2026-04-21 03:27 23.07962 113.85633 24550 ft 440 kts 332°
2026-04-21 03:27 23.10796 113.84363 24559 ft 442 kts 338°
2026-04-21 03:27 23.13698 113.83228 24561 ft 442 kts 338°
2026-04-21 03:28 23.16593 113.82092 24549 ft 442 kts 338°
2026-04-21 03:28 23.19485 113.80953 24553 ft 442 kts 338°
2026-04-21 03:28 23.22384 113.79809 24551 ft 443 kts 338°
2026-04-21 03:28 23.25277 113.78668 24550 ft 443 kts 338°
2026-04-21 03:29 23.28171 113.77528 24552 ft 442 kts 338°
2026-04-21 03:29 23.31068 113.76388 24547 ft 443 kts 338°
2026-04-21 03:29 23.33963 113.75249 24545 ft 442 kts 338°
2026-04-21 03:29 23.36851 113.74113 24548 ft 444 kts 338°
2026-04-21 03:30 23.39811 113.72946 24789 ft 448 kts 338°
2026-04-21 03:30 23.42699 113.71805 25181 ft 447 kts 338°
2026-04-21 03:30 23.45647 113.70641 25495 ft 447 kts 337°
2026-04-21 03:30 23.48567 113.69492 25547 ft 446 kts 337°
2026-04-21 03:31 23.51481 113.68345 25546 ft 445 kts 337°
2026-04-21 03:31 23.54268 113.67245 25548 ft 445 kts 337°
2026-04-21 03:31 23.57167 113.66096 25536 ft 445 kts 337°
2026-04-21 03:31 23.60077 113.64939 25549 ft 445 kts 337°
2026-04-21 03:32 23.62984 113.63785 25541 ft 445 kts 337°
2026-04-21 03:32 23.65901 113.62630 25537 ft 445 kts 337°
2026-04-21 03:32 23.68808 113.61482 25538 ft 445 kts 337°
2026-04-21 03:32 23.71724 113.60331 25548 ft 445 kts 337°
2026-04-21 03:33 23.74631 113.59180 25546 ft 445 kts 337°
2026-04-21 03:33 23.77532 113.58026 25538 ft 445 kts 337°
2026-04-21 03:33 23.80421 113.56873 25536 ft 445 kts 337°
2026-04-21 03:33 23.83331 113.55715 25538 ft 445 kts 337°
2026-04-21 03:34 23.86236 113.54562 25535 ft 445 kts 337°
2026-04-21 03:34 23.89149 113.53405 25533 ft 445 kts 337°
2026-04-21 03:34 23.92084 113.52239 25534 ft 445 kts 337°
2026-04-21 03:34 23.94960 113.51092 25533 ft 445 kts 337°
2026-04-21 03:35 23.97898 113.49918 25533 ft 445 kts 337°
2026-04-21 03:35 24.00807 113.48758 25530 ft 445 kts 337°
2026-04-21 03:35 24.03701 113.47606 25531 ft 445 kts 337°
2026-04-21 03:35 24.06611 113.46449 25531 ft 445 kts 337°
2026-04-21 03:36 24.09521 113.45293 25532 ft 445 kts 337°
2026-04-21 03:36 24.12433 113.44136 25533 ft 445 kts 337°
2026-04-21 03:36 24.15344 113.42975 25534 ft 445 kts 337°
2026-04-21 03:36 24.18324 113.42014 25531 ft 448 kts 346°
2026-04-21 03:37 24.21428 113.41612 25533 ft 452 kts 355°
2026-04-21 03:37 24.24580 113.41687 25535 ft 454 kts 359°
2026-04-21 03:37 24.27740 113.41804 25532 ft 453 kts 359°
2026-04-21 03:37 24.30890 113.41910 25534 ft 454 kts 359°
2026-04-21 03:38 24.34039 113.42010 25533 ft 454 kts 359°
2026-04-21 03:38 24.37196 113.42104 25536 ft 453 kts 359°
2026-04-21 03:38 24.40352 113.42189 25535 ft 453 kts 358°
2026-04-21 03:38 24.43510 113.42269 25537 ft 453 kts 358°
2026-04-21 03:39 24.46658 113.42353 25533 ft 453 kts 358°
2026-04-21 03:39 24.49806 113.42440 25533 ft 453 kts 358°
2026-04-21 03:39 24.52852 113.42526 25534 ft 453 kts 358°
2026-04-21 03:39 24.55320 113.42595 25544 ft 453 kts 358°
2026-04-21 03:40 24.58433 113.42682 25536 ft 454 kts 358°
2026-04-21 03:40 24.61588 113.42769 25535 ft 453 kts 358°
2026-04-21 03:40 24.64742 113.42856 25552 ft 454 kts 358°
2026-04-21 03:40 24.67902 113.42945 25545 ft 454 kts 358°
2026-04-21 03:41 24.71061 113.43035 25540 ft 454 kts 358°
2026-04-21 03:41 24.74220 113.43127 25539 ft 454 kts 358°
2026-04-21 03:41 24.77372 113.43218 25538 ft 454 kts 358°
2026-04-21 03:41 24.80529 113.43308 25544 ft 454 kts 358°
2026-04-21 03:42 24.83680 113.43399 25548 ft 454 kts 358°
2026-04-21 03:42 24.86831 113.43491 25537 ft 453 kts 358°
2026-04-21 03:42 24.89985 113.43582 25538 ft 453 kts 358°
2026-04-21 03:42 24.93141 113.43671 25536 ft 453 kts 358°
2026-04-21 03:43 24.96289 113.43758 25535 ft 453 kts 358°
2026-04-21 03:43 24.99480 113.43847 25537 ft 453 kts 358°
2026-04-21 03:43 25.02568 113.43940 25537 ft 453 kts 358°
2026-04-21 03:43 25.05779 113.44039 25538 ft 453 kts 358°
2026-04-21 03:44 25.08930 113.44131 25537 ft 453 kts 358°
2026-04-21 03:44 25.12079 113.44217 25537 ft 453 kts 358°
2026-04-21 03:44 25.15224 113.44302 25536 ft 453 kts 358°
2026-04-21 03:44 25.18365 113.44389 25538 ft 453 kts 358°
2026-04-21 03:45 25.21522 113.44477 25536 ft 452 kts 358°
2026-04-21 03:45 25.24665 113.44568 25536 ft 453 kts 358°
2026-04-21 03:45 25.27823 113.44661 25535 ft 453 kts 358°
2026-04-21 03:45 25.30966 113.44753 25536 ft 453 kts 358°
2026-04-21 03:46 25.34108 113.44844 25538 ft 453 kts 358°
2026-04-21 03:46 25.37263 113.44935 25545 ft 453 kts 358°
2026-04-21 03:46 25.40401 113.45024 25543 ft 453 kts 358°
2026-04-21 03:46 25.43555 113.45112 25539 ft 452 kts 358°
2026-04-21 03:47 25.46697 113.45199 25394 ft 453 kts 358°
2026-04-21 03:47 25.49861 113.45288 25143 ft 453 kts 358°
2026-04-21 03:47 25.53004 113.45381 24893 ft 452 kts 358°
2026-04-21 03:47 25.56146 113.45475 24648 ft 450 kts 358°
2026-04-21 03:48 25.59280 113.45565 24520 ft 449 kts 358°
2026-04-21 03:48 25.62406 113.45654 24553 ft 450 kts 358°
2026-04-21 03:48 25.65525 113.45743 24553 ft 450 kts 358°
2026-04-21 03:48 25.68662 113.45834 24551 ft 449 kts 358°
2026-04-21 03:49 25.71790 113.45924 24554 ft 449 kts 358°
2026-04-21 03:49 25.74961 113.46015 24557 ft 449 kts 358°
2026-04-21 03:49 25.78083 113.46106 24559 ft 449 kts 358°
2026-04-21 03:49 25.81213 113.46197 24562 ft 449 kts 358°
2026-04-21 03:50 25.84335 113.46286 24562 ft 449 kts 358°
2026-04-21 03:50 25.87457 113.46372 24563 ft 449 kts 358°
2026-04-21 03:50 25.90590 113.46461 24564 ft 450 kts 358°
2026-04-21 03:50 25.93714 113.46558 24562 ft 450 kts 358°
2026-04-21 03:51 25.96846 113.46661 24563 ft 449 kts 358°
2026-04-21 03:51 25.99965 113.46762 24558 ft 450 kts 358°
2026-04-21 03:51 26.03098 113.46865 24561 ft 450 kts 358°
2026-04-21 03:51 26.06222 113.46966 24565 ft 449 kts 358°
2026-04-21 03:52 26.09342 113.47068 24565 ft 449 kts 358°
2026-04-21 03:52 26.12475 113.47167 24571 ft 449 kts 358°
2026-04-21 03:52 26.15593 113.47263 24571 ft 449 kts 358°
2026-04-21 03:52 26.18722 113.47359 24569 ft 450 kts 358°
2026-04-21 03:53 26.21852 113.47455 24570 ft 450 kts 358°
2026-04-21 03:53 26.24982 113.47552 24573 ft 449 kts 358°
2026-04-21 03:53 26.28106 113.47648 24573 ft 449 kts 358°
2026-04-21 03:53 26.31232 113.47744 24572 ft 449 kts 358°
2026-04-21 03:54 26.33345 113.47809 24573 ft 449 kts 358°
2026-04-21 03:54 26.37488 113.47939 24571 ft 449 kts 358°
2026-04-21 03:54 26.39598 113.48006 24570 ft 450 kts 358°
2026-04-21 03:54 26.43624 113.48133 24577 ft 449 kts 358°
2026-04-21 03:55 26.45733 113.48200 24581 ft 449 kts 358°
2026-04-21 03:55 26.48859 113.48300 24583 ft 449 kts 358°
2026-04-21 03:55 26.51988 113.48397 24583 ft 450 kts 358°
2026-04-21 03:55 26.55113 113.48491 24583 ft 450 kts 358°
2026-04-21 03:56 26.58248 113.48587 24580 ft 450 kts 358°
2026-04-21 03:56 26.61373 113.48682 24583 ft 450 kts 358°
2026-04-21 03:56 26.64506 113.48781 24583 ft 450 kts 358°
2026-04-21 03:56 26.67643 113.48883 24576 ft 450 kts 358°
2026-04-21 03:57 26.70769 113.48985 24584 ft 450 kts 358°
2026-04-21 03:57 26.73736 113.49082 24583 ft 450 kts 358°
2026-04-21 03:57 26.76860 113.49182 24577 ft 450 kts 358°
2026-04-21 03:57 26.79993 113.49278 24578 ft 451 kts 358°
2026-04-21 03:58 26.83130 113.49373 24580 ft 451 kts 358°
2026-04-21 03:58 26.86264 113.49470 24592 ft 451 kts 358°
2026-04-21 03:58 26.89399 113.49568 24593 ft 451 kts 358°
2026-04-21 03:58 26.92541 113.49669 24591 ft 451 kts 358°
2026-04-21 03:59 26.95668 113.49770 24154 ft 448 kts 358°
2026-04-21 03:59 26.98810 113.49871 22466 ft 447 kts 358°
2026-04-21 03:59 27.01872 113.49969 21104 ft 441 kts 358°
2026-04-21 04:00 27.07691 113.50166 20458 ft 405 kts 358°
2026-04-21 04:00 27.10494 113.50256 19982 ft 401 kts 358°
2026-04-21 04:00 27.13268 113.50342 19534 ft 397 kts 358°
2026-04-21 04:00 27.16013 113.50425 19076 ft 392 kts 358°
2026-04-21 04:01 27.18732 113.50504 18638 ft 390 kts 358°
2026-04-21 04:01 27.21468 113.50586 18200 ft 387 kts 358°
2026-04-21 04:01 27.24143 113.50534 17758 ft 382 kts 351°
2026-04-21 04:01 27.26743 113.50032 17322 ft 376 kts 341°
2026-04-21 04:02 27.29217 113.49162 16891 ft 372 kts 338°
2026-04-21 04:02 27.31666 113.48259 16442 ft 370 kts 338°
2026-04-21 04:02 27.34105 113.47367 15998 ft 368 kts 338°
2026-04-21 04:02 27.36531 113.46480 15542 ft 365 kts 338°
2026-04-21 04:03 27.38944 113.45598 15089 ft 363 kts 338°
2026-04-21 04:03 27.41341 113.44721 14631 ft 361 kts 338°
2026-04-21 04:03 27.43724 113.43850 14166 ft 358 kts 338°
2026-04-21 04:03 27.46114 113.42975 13695 ft 356 kts 338°
2026-04-21 04:04 27.48472 113.42127 13215 ft 355 kts 341°
2026-04-21 04:04 27.50909 113.41628 12727 ft 358 kts 352°
2026-04-21 04:04 27.53396 113.41552 12229 ft 358 kts 356°
2026-04-21 04:04 27.55886 113.41524 11729 ft 357 kts 356°
2026-04-21 04:05 27.58360 113.41491 11221 ft 355 kts 356°
2026-04-21 04:05 27.60820 113.41459 10756 ft 352 kts 356°
2026-04-21 04:05 27.63229 113.41428 10620 ft 340 kts 356°
2026-04-21 04:05 27.65532 113.41419 10493 ft 329 kts 360°
2026-04-21 04:06 27.67824 113.41608 10349 ft 318 kts
2026-04-21 04:06 27.69986 113.41798 10093 ft 313 kts
2026-04-21 04:06 27.72174 113.41990 9876 ft 309 kts
2026-04-21 04:06 27.74321 113.42177 9760 ft 310 kts
2026-04-21 04:07 27.76472 113.42364 9428 ft 311 kts
2026-04-21 04:07 27.78639 113.42556 8987 ft 312 kts
2026-04-21 04:07 27.80788 113.42750 8646 ft 309 kts
2026-04-21 04:07 27.82798 113.42687 8274 ft 305 kts 349°
2026-04-21 04:08 27.84847 113.42415 7907 ft 305 kts 354°
2026-04-21 04:08 27.86772 113.42101 7546 ft 297 kts 337°
2026-04-21 04:08 27.88354 113.41189 7094 ft 290 kts 326°
2026-04-21 04:08 27.89944 113.40049 6622 ft 287 kts 324°
2026-04-21 04:09 27.91622 113.38816 6103 ft 282 kts 324°
2026-04-21 04:09 27.93116 113.37718 5656 ft 279 kts 324°
2026-04-21 04:09 27.94734 113.36512 5150 ft 274 kts 321°
2026-04-21 04:09 27.95920 113.35109 4884 ft 259 kts 300°
2026-04-21 04:10 27.96579 113.33413 4787 ft 238 kts 284°
2026-04-21 04:10 27.96994 113.31756 4657 ft 220 kts 284°
2026-04-21 04:10 27.97399 113.30156 4552 ft 206 kts 284°
2026-04-21 04:10 27.97777 113.28664 4424 ft 189 kts 284°
2026-04-21 04:11 27.98109 113.27349 4301 ft 178 kts 284°
2026-04-21 04:11 27.98438 113.26035 4133 ft 171 kts 284°
2026-04-21 04:11 27.98776 113.24768 3930 ft 167 kts 292°
2026-04-21 04:11 27.99476 113.23822 3729 ft 166 kts 328°
2026-04-21 04:12 28.00566 113.23471 3531 ft 165 kts 357°
2026-04-21 04:12 28.01715 113.23399 3306 ft 164 kts 358°
2026-04-21 04:12 28.02852 113.23334 3089 ft 163 kts 358°
2026-04-21 04:12 28.03975 113.23272 2845 ft 162 kts 358°
2026-04-21 04:13 28.04925 113.23219 2673 ft 161 kts 358°
2026-04-21 04:13 28.06030 113.23150 2448 ft 157 kts 358°
2026-04-21 04:13 28.07096 113.23086 2234 ft 151 kts 358°
2026-04-21 04:13 28.08148 113.23022 2040 ft 149 kts 358°
2026-04-21 04:14 28.09117 113.22964 1846 ft 148 kts 357°
2026-04-21 04:14 28.10140 113.22901 1654 ft 147 kts 357°
2026-04-21 04:14 28.11163 113.22837 1467 ft 144 kts 356°
2026-04-21 04:14 28.12158 113.22771 1299 ft 142 kts 355°
2026-04-21 04:15 28.13074 113.22705 1138 ft 141 kts 355°
2026-04-21 04:15 28.14047 113.22660 979 ft 140 kts 356°
2026-04-21 04:15 28.15021 113.22608 803 ft 140 kts 355°
2026-04-21 04:15 28.15989 113.22547 590 ft 140 kts 355°
2026-04-21 04:16 28.16956 113.22491 372 ft 139 kts 355°
2026-04-21 04:16 28.17915 113.22420 222 ft 135 kts 357°
2026-04-21 04:16 28.18688 113.22381 219 ft 89 kts 357°
2026-04-21 04:16 28.19054 113.22355 216 ft 52 kts 356°
2026-04-21 04:17 28.19324 113.22338 213 ft 36 kts 357°
2026-04-21 04:17 28.19528 113.22294 216 ft 28 kts 330°
2026-04-21 04:17 28.19618 113.22235 215 ft 22 kts 328°
2026-04-21 04:17 28.19652 113.22173 215 ft 8 kts 276°
2026-04-21 04:18 28.19655 113.22144 215 ft 1 kts 302°
2026-04-21 04:18 28.19718 113.22128 215 ft 15 kts 356°
2026-04-21 04:18 28.19824 113.22120 215 ft 15 kts 356°
2026-04-21 04:18 28.19922 113.22113 215 ft 14 kts 356°
2026-04-21 04:19 28.20018 113.22105 215 ft 14 kts 356°
2026-04-21 04:19 28.20075 113.22052 215 ft 11 kts 273°
2026-04-21 04:19 28.20070 113.21968 215 ft 10 kts 267°
2026-04-21 04:19 28.20067 113.21896 215 ft 10 kts 268°
2026-04-21 04:20 28.20065 113.21817 214 ft 10 kts 267°
2026-04-21 04:20 28.20056 113.21744 214 ft 7 kts 232°
2026-04-21 04:20 28.20011 113.21725 214 ft 7 kts 187°
2026-04-21 04:20 28.19968 113.21724 214 ft 6 kts 178°
2026-04-21 04:21 28.19900 113.21728 214 ft 16 kts 177°
2026-04-21 04:21 28.19758 113.21735 214 ft 21 kts 176°
2026-04-21 04:21 28.19612 113.21747 214 ft 21 kts 177°
2026-04-21 04:21 28.19468 113.21756 215 ft 21 kts 179°
2026-04-21 04:22 28.19372 113.21755 214 ft 20 kts 176°
2026-04-21 04:22 28.19232 113.21769 214 ft 20 kts 175°
2026-04-21 04:22 28.19053 113.21782 215 ft 19 kts 175°
2026-04-21 04:22 28.18961 113.21787 214 ft 20 kts 177°
2026-04-21 04:23 28.18825 113.21796 214 ft 20 kts 176°
2026-04-21 04:23 28.18689 113.21804 214 ft 19 kts 178°
2026-04-21 04:23 28.18597 113.21787 214 ft 12 kts 224°
2026-04-21 04:23 28.18583 113.21705 214 ft 10 kts 268°
2026-04-21 04:24 28.18581 113.21628 214 ft 10 kts 268°
2026-04-21 04:24 28.18591 113.21562 214 ft 8 kts 312°
2026-04-21 04:24 28.18634 113.21550 214 ft 6 kts 356°
2026-04-21 04:24 28.18644 113.21550 214 ft 0 kts 358°
2026-04-21 04:25 28.18648 113.21550 214 ft 1 kts 358°
2026-04-21 04:25 28.18655 113.21550 214 ft 0 kts 358°
2026-04-21 04:25 28.18657 113.21550 214 ft 0 kts 358°
2026-04-21 04:26 28.18661 113.21549 214 ft 0 kts 358°